Terminal Aerodrome Forecast
Issued by NWS

Home | Current Version | Previous Version | Text Only | Print | Product List | Glossary On
Versions: 1 2 3 4 5 6 7 8 9 10 11 12 13 14 15 16 17 18 19 20 21 22 23 24 25 26 27 28 29 30 31 32 33 34 35 36 37 38 39 40 41 42 43 44 45 46 47 48 49 50
000
FTUS44 KHGX 061424 AAA
TAFCXO
TAF AMD
KCXO 061424Z 0614/0712 16010KT P6SM BKN014 BKN018 OVC024
     FM061530 18012KT P6SM SCT030 SCT250
     FM070400 16007KT P6SM FEW025 SCT250
     FM070900 16005KT P6SM BKN027=

USA.gov is the U.S. government's official web portal to all federal, state and local government web resources and services.